Yuedian 58 — BYFE — position and weather

sailwx.info

Track history (hours):
 
Tides and Currents Weather Stations Pressure Air Temp Water Temp Dewpoint Dewpoint Depression Visibility Wind Speed Wind Dir Waves Ship Positions

Yuedian 58

Last reported at 2014-Nov-25 21:30 UTC. Time now 2014-Nov-26 09:56 UTC.
Position N 22°46' E 116°44'.

Length 190 m; draft 12.8 m.

Type: Cargo ship. MMSI: 414008000.

Date/timePositionNaut miles runAvg speedWind from/ knotsBaromVisibWave heightAir tempDewpointWater temp
2014-Nov-25 21:30N 22°46' E 116°44'1313.2
2014-Nov-25 20:32N 22°52' E 116°56'5413.5
2014-Nov-25 16:33N 23°28' E 117°40'1212.2
2014-Nov-25 15:33N 23°37' E 117°49'1212.1
2014-Nov-25 14:33N 23°45' E 117°58'1312.3
2014-Nov-25 13:29N 23°54' E 118°09'1212.3
2014-Nov-25 12:29N 24°01' E 118°20'1311.7
2014-Nov-25 11:21N 24°10' E 118°31'2212.3
2014-Nov-25 09:32N 24°24' E 118°50'1412.3
2014-Nov-25 08:24N 24°33' E 119°02'1012.4
2014-Nov-25 07:33N 24°40' E 119°10'34811.9
2014-Nov-24 02:14N 29°30' E 122°46'43411.7
2014-Nov-22 13:05N 36°44' E 123°09'712.6
2014-Nov-22 12:33N 36°51' E 123°09'1311.9
2014-Nov-22 11:29N 37°04' E 123°10'1111.2
2014-Nov-22 10:32N 37°14' E 123°08'1010.6
2014-Nov-22 09:32N 37°24' E 123°03'3610.7
2014-Nov-22 06:13N 37°51' E 122°34'1412.6
2014-Nov-22 05:08N 37°56' E 122°18'1112.6
2014-Nov-22 04:16N 37°60' E 122°05'1312.3
2014-Nov-22 03:14N 38°05' E 121°50'12811.7
2014-Nov-21 16:17N 38°44' E 119°15'3511.0
2014-Nov-21 13:06N 38°49' E 118°31'610.1
2014-Nov-21 12:29N 38°55' E 118°28'  
2014-Nov-18 06:23N 38°25' E 121°18'10712.1
2014-Nov-17 21:33N 37°09' E 122°53'1313.0
2014-Nov-17 20:33N 36°56' E 122°54'  
Track history (hours):
 
Tides and Currents Weather Stations Pressure Air Temp Water Temp Dewpoint Dewpoint Depression Visibility Wind Speed Wind Dir Waves Ship Positions

Yuedian 58

Last reported at 2014-Nov-25 21:30 UTC. Time now 2014-Nov-26 09:56 UTC.
Position N 22°46' E 116°44'.

Length 190 m; draft 12.8 m.

Type: Cargo ship. MMSI: 414008000.

Date/timePositionNaut miles runAvg speedWind from/ knotsBaromVisibWave heightAir tempDewpointWater temp
2014-Nov-25 21:30N 22°46' E 116°44'1313.2
2014-Nov-25 20:32N 22°52' E 116°56'5413.5
2014-Nov-25 16:33N 23°28' E 117°40'1212.2
2014-Nov-25 15:33N 23°37' E 117°49'1212.1
2014-Nov-25 14:33N 23°45' E 117°58'1312.3
2014-Nov-25 13:29N 23°54' E 118°09'1212.3
2014-Nov-25 12:29N 24°01' E 118°20'1311.7
2014-Nov-25 11:21N 24°10' E 118°31'2212.3
2014-Nov-25 09:32N 24°24' E 118°50'1412.3
2014-Nov-25 08:24N 24°33' E 119°02'1012.4
2014-Nov-25 07:33N 24°40' E 119°10'34811.9
2014-Nov-24 02:14N 29°30' E 122°46'43411.7
2014-Nov-22 13:05N 36°44' E 123°09'712.6
2014-Nov-22 12:33N 36°51' E 123°09'1311.9
2014-Nov-22 11:29N 37°04' E 123°10'1111.2
2014-Nov-22 10:32N 37°14' E 123°08'1010.6
2014-Nov-22 09:32N 37°24' E 123°03'3610.7
2014-Nov-22 06:13N 37°51' E 122°34'1412.6
2014-Nov-22 05:08N 37°56' E 122°18'1112.6
2014-Nov-22 04:16N 37°60' E 122°05'1312.3
2014-Nov-22 03:14N 38°05' E 121°50'12811.7
2014-Nov-21 16:17N 38°44' E 119°15'3511.0
2014-Nov-21 13:06N 38°49' E 118°31'610.1
2014-Nov-21 12:29N 38°55' E 118°28'  
2014-Nov-18 06:23N 38°25' E 121°18'10712.1
2014-Nov-17 21:33N 37°09' E 122°53'1313.0
2014-Nov-17 20:33N 36°56' E 122°54'  

Dump ship's entire track history